Location: Mauna Kea VIS
(19.7591°N, 155.4561°W)
Time: 22:51:26
(UTC-10:00)

Daily predictions for brighter satellites

Satellite Brightness Start Highest point End
(mag) Time Altitude Azimuth Time Altitude Azimuth Time Altitude Azimuth
Cosmos 2074 Rocket 4.0 18:52:26 10° S 18:58:39 66° E 19:04:52 10° NNE
COSMOS 2428 2.8 18:56:07 10° SSW 19:01:50 85° ESE 19:07:34 10° NNE
MONITOR-E 4.2 18:59:10 10° S 19:02:10 80° W 19:05:10 10° NNW
Cosmos 2333 4.3 18:57:38 10° SSW 19:03:20 88° WNW 19:08:58 10° NNE
Aureole 1 Rocket 4.3 19:02:32 10° NW 19:05:23 33° WSW 19:08:38 10° S
Envisat 4.4 19:03:13 10° ESE 19:06:43 19° ENE 19:10:12 10° NNE
Meteor 2-8 Rocket 4.4 19:01:33 10° N 19:07:41 73° E 19:13:49 10° S
Cosmos 2219 Rocket 2.2 19:05:03 10° S 19:10:38 66° ESE 19:16:14 10° NNE
Cosmos 1844 Rocket 4.4 19:07:52 10° NNE 19:10:59 15° ENE 19:14:03 10° E
Stardust Del rocket 2.9 19:09:11 10° WSW 19:11:50 69° SSE 19:16:25 10° E
EO 1 Del DPAF 3.7 19:08:06 10° N 19:11:53 66° WNW 19:15:38 10° SSW
XTE 3.4 19:10:09 10° WNW 19:12:05 32° N 19:14:01 10° ENE
FengYun 1-2 T 4.5 19:07:05 10° SSE 19:12:28 52° ENE 19:17:53 10° N
Cosmos 2237 Rocket 3.0 19:08:24 10° SSE 19:13:02 27° ESE 19:17:40 10° NE
Cosmos 2263 Rocket 2.5 19:08:25 10° NNW 19:14:04 74° WSW 19:19:40 10° S
Hubble Space Telescope 2.8 19:13:02 10° S 19:14:47 12° SSE 19:16:32 10° SE
Cosmos 1340 2.7 19:13:55 10° S 19:17:37 57° E 19:21:20 10° NNE
Cosmos 2221 3.5 19:14:21 10° SSW 19:18:29 50° W 19:22:36 10° N
HJ-1C 4.4 19:17:47 10° SE 19:20:39 27° ENE 19:23:31 10° NNE
ASC 2 Rocket 4.3 19:15:19 10° WSW 19:21:19 71° SSE 19:30:40 10° ENE
H-2A R/B 2.9 19:19:22 10° S 19:23:02 74° W 19:26:45 10° NNW
Cosmos 1269 Rocket 4.2 19:24:15 10° NNW 19:29:32 78° WSW 19:34:49 10° S
ATLAS 3B CENTAUR R/B 3.6 19:12:03 10° WNW 19:30:24 87° NNE 19:35:53 17° ESE
ASTRO E2 3.6 19:27:36 10° W 19:31:29 47° NNW 19:35:21 10° NE
SPOT 3 Rocket 4.0 19:34:30 10° S 19:39:37 62° WSW 19:44:43 10° NNW
Cosmos 1328 Rocket 3.9 19:37:42 10° SSE 19:41:48 41° E 19:45:57 10° NNE
ATLAS CENTAUR R/B 2.9 19:38:32 10° SW 19:41:49 34° WNW 19:45:09 10° N
Cosmos 1805 Rocket 3.4 19:44:17 10° N 19:48:36 71° E 19:52:40 11° S
Thor Agena Rocket 3.6 19:44:27 10° NNE 19:49:43 87° WNW 19:55:00 10° SSW
SJ-6B 2.8 19:49:36 17° SSE 19:52:42 71° ENE 19:56:43 10° N
In-Cosmos 22 Rocket 4.0 19:48:31 10° N 19:53:53 82° E 19:59:11 10° S
Resurs 01 Rocket 2.7 19:54:44 25° ENE 19:54:44 25° ENE 19:58:16 10° NNE
Cosmos 1939 Rocket 3.7 20:00:48 31° ENE 20:00:48 31° ENE 20:03:45 10° NNE
SL-16 R/B 3.8 20:06:25 18° ENE 20:06:25 18° ENE 20:08:06 10° NE
Aurora 2 Rocket 3.9 20:04:23 10° SW 20:12:57 54° SSE 20:15:05 40° ESE
ATLAS 2AS CENTAUR R/B 3.9 20:07:35 10° N 20:13:39 26° ENE 20:14:39 25° ENE
GPS 2-05 Rocket1 3.4 20:11:29 10° NW 20:14:18 48° N 20:14:18 48° N
Ariane H10+ 4.1 20:14:26 10° S 20:14:45 11° S 20:14:45 11° S
ERS-2 2.1 20:18:38 72° SW 20:18:47 75° WSW 20:22:26 10° NNW
Timation 1 Rocket 4.4 20:13:13 10° N 20:19:04 57° ENE 20:20:13 49° ESE
Cosmos 1455 3.5 20:17:39 10° SSW 20:21:12 39° W 20:24:47 10° NNW
CZ-2D R/B 4.5 20:19:42 21° SSW 20:21:47 39° W 20:25:20 10° NNW
Gblst 52 Del rocket 4.2 20:17:33 10° SSW 20:23:05 53° SE 20:23:05 53° SE
H-2A R/B 2.9 20:21:50 10° NW 20:22:59 19° NW 20:22:59 19° NW
Cosmos 1151 Rocket 3.0 20:25:48 64° SSW 20:26:23 78° W 20:30:37 10° N
Meteor 2-3 Rocket 3.6 20:20:56 10° N 20:26:30 66° E 20:27:13 60° SE
Resurs 1-3 3.7 20:27:58 62° NNE 20:27:58 62° NNE 20:31:45 10° N
Cosmos 1666 Rocket 4.1 20:24:58 10° NNW 20:29:19 58° W 20:30:39 40° SSW
YAOGAN 6 3.7 20:31:46 41° NNW 20:31:46 41° NNW 20:34:16 10° NNW
Cosmos 2218 Rocket 3.9 20:31:53 40° SSE 20:34:16 75° E 20:40:37 10° N
Cosmos 1371 Rocket 4.2 20:31:38 10° SSW 20:36:52 71° WNW 20:42:10 10° N
SL-08 R/B 4.5 20:38:14 60° ENE 20:38:14 60° ENE 20:44:06 10° NNE
Sich 1 4.4 20:34:49 10° NNW 20:38:43 36° W 20:40:13 27° SW
Cosmos 1892 4.0 20:36:54 10° NNW 20:40:23 39° W 20:40:23 39° W
Cosmos 2366 rocket 3.8 20:44:45 70° SSE 20:45:30 85° E 20:51:44 10° N
Delta 202 3.9 20:43:15 10° W 20:50:54 77° S 20:50:54 77° S
Cosmos 1844 Rocket 3.5 20:49:34 10° NNW 20:54:56 45° WSW 20:55:55 41° SW
Hubble Space Telescope 3.5 20:51:40 10° SW 20:51:58 12° SW 20:51:58 12° SW
USA 267 3.1 20:49:24 10° NE 20:55:58 86° NW 21:02:29 10° SW
Cosmos 2237 Rocket 4.3 20:52:26 10° WSW 20:56:53 24° WNW 21:01:22 10° NNW
ATLAS 2A CENTAUR R/B 4.1 20:34:51 10° WSW 20:57:17 81° NNW 21:01:53 42° ENE
Cosmos 2056 Rocket 4.1 20:57:03 45° WSW 20:58:18 55° WNW 21:03:36 10° N
Cosmos 1844 4.2 20:56:58 10° NNW 21:02:32 54° WSW 21:02:32 54° WSW
Cosmos 2344 3.4 20:56:04 10° SSW 21:04:15 87° ESE 21:11:54 10° NNE
Cosmos 2278 Rocket 3.6 21:12:35 10° NNW 21:15:29 31° N 21:15:29 31° N
Resurs 01 Rocket 4.4 21:32:18 15° WNW 21:32:18 15° WNW 21:33:47 10° WNW
SL-16 R/B 4.3 21:48:00 23° NW 21:48:00 23° NW 21:51:40 10° NNW
ATLAS 2AS CENTAUR R/B 4.2 21:57:45 10° NW 22:02:07 32° WNW 22:02:07 32° WNW
